WESTFORD NEEDLES, 2364

Orbit data source: Space-Track

WESTFORD NEEDLES, 2364 is space debris in LEO originally from a launch on Thu, 09 May 1963 UTC launched from the Air Force Western Test Range (AFWTR). Debris objects in space refer to the collection of defunct objects orbiting the Earth. Examples of debris include non-operational satellites, rocket bodies, and fragments generated from explosions, collisions, or faulty payload assembly.

Loading next visibility...
WESTFORD NEEDLES details
Identifier
2364, 1963-014P
Orbit
LEO
Last TLE update1 day ago
Origin
Flag of USUSAF SSD (US)
ManufacturerUnknown
MissionSpacecraft
Bus & MotorUnknown
MassUnknown
Launch date (UTC)
1963-05-09 (62 years ago)
Launch vehicleUnknown
Launch site
Air Force Western Test Range (AFWTR)
Object type
Payload
Rocket body
Debris
Shape & HBRUnknown
Radar Cross SectionMedium (>0.1 m² and <1 m²)

Expand to show TLE details & history

TLE from 1 day ago
0 WESTFORD NEEDLES
1 02364U 63014P   25039.54016680 -.00000587  00000-0 -21742+0 0  9995
2 02364  87.5714 325.5642 0659445 194.5528 163.5480  8.67446459953167
Epoch: 2025-02-08T12:57Z
Definitive object data (Epoch: 2025-02-08T12:57:50.411Z)
Latitude-0.00002°
Longitude-7.78243°
Altitude4,265.637 km
Speed5.922 km/s
True Right ascension21h 42m 15s
True Declination0° 00' 00"
Sunlit
Object was in daylight at TLE epoch
Visualization TLE readout
Latitude-68.12288°
Longitude178.15758°
Altitude3,244.018 km
Speed6.568 km/s
Apparent Right ascension07h 44m 44s
Apparent Declination-60° 24' 52"
Sunlit
Object is in daylight
Visualization observer readout
Local Sidereal Time18:04:24
Azimuth208.842° SW
Elevation-64.286°
Doppler factor1
Orbital elements
Apogee altitude4,284.86 km
Perigee altitude2,965.53 km
Semi-major axis10,003.332 km
Eccentricity0.0659445
Inclination87.5714°
RAAN325.5642°
Arg. of periapsis194.5528°
True anomaly165.53055°
Mean anomaly163.548°
Eccentric anomaly164.55427°
Mean motion2.16933 °/min
BSTAR-0.21742
Orbital period165.95 mins
Loading maneuver chart data...

WESTFORD NEEDLES Visibility forecast

Observer location: undefined°, undefined

Span
Click to sort rows by Start time (UTC) header in descending order
Start Az.
Max El. time (UTC)
Max El. Az.
Max El.
End time (UTC)
End Az.
32 mins2025-02-09 16:45:56.460Z115.117° SE2025-02-09 17:02:56.460Z63.142° ENE27.243°2025-02-09 17:17:56.460Z13.534° NNE
42 mins2025-02-09 19:23:56.460Z180.917° SSW2025-02-09 19:44:56.460Z253.21° W44.73°2025-02-09 20:05:56.460Z0.915° NNE
29 mins2025-02-09 22:21:56.460Z257.367° W2025-02-09 22:35:56.460Z300.368° NW20.9°2025-02-09 22:50:56.460Z348.668° N
25 mins2025-02-10 04:34:56.460Z11.771° NNE2025-02-10 04:47:56.460Z63.335° ENE24.938°2025-02-10 04:59:56.460Z116.455° SE
32 mins2025-02-10 07:19:56.460Z356.16° N2025-02-10 07:36:56.460Z270.771° WNW44.077°2025-02-10 07:51:56.460Z193.725° SSW
15 mins2025-02-10 10:09:56.460Z335.304° NNW2025-02-10 10:16:56.460Z309.945° NW15.549°2025-02-10 10:24:56.460Z278.644° WNW
|